EW9774 Weather Reports


Display with metric or nautical units.
time (UTC)temp
F
wind
direction
speed
MPH
gust
MPH
rain 1hr
in
rain 24hr
in
rain mn
in
humidity
%
barometer
mb
20260904211555 63 181 1.0 3.0 0.00 0.02 0.01 74 1015.1
20260904210103 63 202 0.0 1.0 0.00 0.02 0.01 71 1015.0
20260904204531 63 200 0.0 3.0 0.00 0.02 0.01 69 1015.0
20260904203107 64 156 1.0 4.0 0.00 0.02 0.01 70 1015.2
20260904201529 62 129 1.0 4.0 0.00 0.02 0.01 72 1015.2
20260904200031 61 121 0.0 2.0 0.00 0.02 0.01 73 1015.4
20260904193029 61 82 1.0 3.0 0.00 0.02 0.01 72 1015.6
20260904191531 61 54 0.0 3.0 0.00 0.02 0.01 73 1015.7
20260904190030 60 88 0.0 3.0 0.00 0.02 0.01 77 1015.8
20260904184530 59 31 1.0 4.0 0.00 0.02 0.01 80 1015.9
20260904183031 58 353 0.0 3.0 0.00 0.02 0.01 83 1015.8
20260904181533 56 137 0.0 3.0 0.00 0.02 0.01 85 1015.8
20260904180028 56 112 0.0 1.0 0.00 0.02 0.01 86 1015.8
20260904174530 56 163 0.0 2.0 0.00 0.02 0.01 87 1015.8
20260904173031 56 180 0.0 0.0 0.00 0.02 0.01 88 1015.8
20260904171644 56 180 0.0 3.0 0.00 0.02 0.01 89 1015.8
20260904163032 55 186 0.0 2.0 0.00 0.02 0.01 94 1015.6
20260904161606 54 121 1.0 3.0 0.00 0.02 0.01 95 1015.6
20260904160032 54 136 1.0 3.0 0.00 0.02 0.01 96 1015.6
20260904154604 54 135 0.0 1.0 0.00 0.02 0.01 97 1015.5
20260904153030 53 135 0.0 2.0 0.00 0.02 0.01 97 1015.4
20260904151533 53 182 0.0 2.0 0.00 0.02 0.01 97 1015.2
20260904150145 52 193 0.0 3.0 0.00 0.02 0.01 97 1015.2
20260904144603 52 180 0.0 1.0 0.00 0.02 0.01 97 1015.1
20260904141648 51 180 0.0 0.0 0.01 0.02 0.01 97 1014.8
20260904140144 50 180 0.0 0.0 0.01 0.02 0.01 97 1014.7
20260904134605 50 180 0.0 1.0 0.01 0.02 0.00 96 1014.5
20260904133145 51 180 0.0 1.0 0.00 0.01 0.00 96 1014.4
20260904130030 50 180 0.0 2.0 0.00 0.01 0.00 96 1014.0
20260904123032 50 180 0.0 2.0 0.00 0.01 0.00 96 1014.0
20260904121531 50 180 0.0 0.0 0.00 0.01 0.00 96 1013.9
20260904120144 50 180 0.0 2.0 0.00 0.01 0.00 96 1013.8
20260904114530 51 180 1.0 2.0 0.00 0.01 0.00 96 1013.6
20260904113144 51 180 0.0 3.0 0.00 0.01 0.00 96 1013.6
20260904111530 51 180 0.0 0.0 0.00 0.01 0.00 96 1013.5
20260904110029 51 180 0.0 0.0 0.00 0.01 0.00 96 1013.3
20260904104530 51 180 0.0 0.0 0.00 0.01 0.00 96 1013.3
20260904103145 51 180 0.0 0.0 0.00 0.01 0.00 96 1013.1
20260904101530 50 180 0.0 0.0 0.00 0.01 0.00 96 1012.9
20260904100029 50 180 0.0 0.0 0.00 0.01 0.00 96 1012.8
20260904094531 50 180 0.0 0.0 0.00 0.01 0.00 96 1012.8
20260904093028 50 180 0.0 1.0 0.00 0.01 0.00 96 1012.7
20260904090030 49 198 0.0 2.0 0.00 0.01 0.00 95 1012.6
20260904084530 50 202 0.0 1.0 0.00 0.01 0.00 95 1012.6
20260904083030 50 202 1.0 3.0 0.00 0.01 0.00 95 1012.5
20260904081530 50 202 1.0 3.0 0.00 0.01 0.00 95 1012.4
20260904080032 50 183 0.0 2.0 0.00 0.01 0.00 95 1012.6
20260904074530 51 180 1.0 3.0 0.00 0.01 0.00 95 1012.5
20260904073108 50 180 0.0 2.0 0.00 0.01 0.00 94 1012.5
20260904071530 50 183 0.0 3.0 0.00 0.01 0.00 94 1012.5
20260904070034 50 198 0.0 3.0 0.00 0.01 0.00 94 1012.4
20260904064644 51 180 0.0 2.0 0.00 0.01 0.01 94 1012.4
20260904063032 51 180 0.0 1.0 0.00 0.01 0.01 94 1012.4
20260904061605 51 180 0.0 3.0 0.00 0.01 0.01 93 1012.3
20260904060108 52 180 1.0 4.0 0.00 0.01 0.01 93 1012.3
20260904051530 52 180 2.0 4.0 0.00 0.01 0.01 92 1012.3
20260904050104 53 184 0.0 0.0 0.00 0.01 0.01 92 1012.4
20260904044532 53 202 0.0 2.0 0.00 0.01 0.01 92 1012.4
20260904041530 53 180 1.0 3.0 0.00 0.01 0.01 90 1012.4
20260904034607 52 184 2.0 3.0 0.00 0.01 0.01 89 1012.4
20260904033028 53 199 2.0 3.0 0.00 0.02 0.01 87 1012.2
20260904031529 53 192 0.0 3.0 0.00 0.02 0.01 85 1012.0
20260904024623 55 180 1.0 7.0 0.00 0.02 0.01 81 1011.8
20260904023032 56 181 1.0 7.0 0.00 0.03 0.01 81 1011.7
20260904021605 56 334 0.0 4.0 0.00 0.09 0.01 80 1011.6
20260904014602 57 258 3.0 9.0 0.00 0.20 0.01 79 1011.6
20260904013031 57 303 1.0 7.0 0.00 0.21 0.01 78 1011.5
20260904011528 58 353 1.0 5.0 0.00 0.21 0.01 76 1011.5
20260904004532 60 13 3.0 9.0 0.00 0.22 0.01 74 1011.4
20260904003030 60 13 2.0 7.0 0.00 0.24 0.01 74 1011.3
20260904000107 60 182 1.0 9.0 0.00 0.27 0.01 78 1011.5
20260903234606 58 193 1.0 5.0 0.00 0.28 0.01 80 1011.6
20260903233030 58 220 3.0 10.0 0.00 0.28 0.01 77 1011.6
20260903231532 60 191 3.0 11.0 0.00 0.28 0.01 75 1011.5
20260903230032 61 270 0.0 5.0 0.00 0.30 0.01 73 1011.6
20260903224530 61 180 2.0 9.0 0.00 0.30 0.01 70 1011.5
20260903223106 62 182 1.0 10.0 0.01 0.30 0.01 69 1011.5
20260903214531 66 162 6.0 13.0 0.01 0.33 0.00 60 1011.2